Location: Newark
(58.8333°N, 23.5833°E)
Time: 05:20:03
(UTC+00:00)

Tiros 1 despin weight - Pass Details

Date: 23 November 2019
Orbit: 594 x 642 km, 48.2° (Epoch: 05 December)

Event Time Altitude Azimuth Distance (km) Brightness Sun altitude
Rises 15:23:34 0° 260° (W) 2,841 ? -11.3°
Reaches altitude 10° 15:27:55 10° 220° (SW) 1,944 ? -11.8°
Maximum altitude 15:28:41 10° 210° (SSW) 1,920 ? -11.9°
Drops below altitude 10° 15:29:26 10° 200° (SSW) 1,947 ? -12.0°
Sets 15:33:50 0° 160° (SSE) 2,861 ? -12.6°
